QPF
0.00 0.00 0.00 0.00 0.00 0.00 0.00 0.00 0.00 0.00 0.00 0.00 0.00 0.00 0.00 0.00 0.00 0.00 0.00 0.00 0.00 0.00 0.00 0.00 0.00 0.00 0.00
0.00 0.00 0.00 0.00 0.00 0.00 0.00 0.00 0.00 0.00 0.00 0.00 0.00 0.00 0.00 0.00 0.00 0.00 0.00 0.00 0.00 0.00 0.00 0.00 0.00 0.00 0.00
0.00 0.00 0.00 0.00 0.00 0.00 0.00 0.00 0.00 0.00 0.00 0.00 0.00 0.00 0.00 0.00 0.00 0.00 0.00 0.00 0.00 0.00 0.00 0.00 0.00 0.00 0.00
0.00 0.00 0.00 0.00 0.00 0.00 0.00 0.00 0.00 0.00 0.00 0.00 0.00 0.00 0.00 0.00 0.00 0.00 0.00 0.00 0.00 0.00 0.00 0.00 0.00 0.00 0.00
0.00 0.00 0.00 0.00 0.00 0.00 0.00 0.00 0.00 0.00 0.00 0.00 0.00 0.00 0.00 0.00 0.00 0.00 0.00 0.00 0.00 0.00 0.00 0.00 0.00 0.00 0.00
0.00 0.00 0.00 0.00 0.00 0.00 0.00 0.00 0.00 0.00 0.00 0.00 0.00 0.00 0.00 0.00 0.00 0.00 0.00 0.00 0.00 0.00 0.00 0.00 0.00 0.00 0.00
0.00 0.00 0.00 0.00 0.00 0.00 0.00 0.00 0.00 0.00 0.00 0.00 0.00 0.00 0.00 0.00 0.00 0.00 0.00 0.00 0.00 0.00 0.00 0.00 0.00 0.00 0.00
0.01 0.01 0.01 0.00 0.00 0.00 0.00 0.00 0.00 0.00 0.00 0.00 0.00 0.00 0.00 0.00 0.00 0.00 0.00 0.00 0.00 0.00 0.00 0.00 0.00 0.00 0.00
0.00 0.00 0.00 0.00 0.00 0.00 0.00 0.00 0.00 0.00 0.00 0.00 0.00 0.00 0.00 0.00 0.00 0.00 0.00 0.00 0.00 0.00 0.00 0.00 0.00 0.00 0.00
0.00 0.00 0.00 0.00 0.00 0.00 0.00 0.00 0.00 0.00 0.00 0.00 0.00 0.00 0.00 0.00 0.00 0.00 0.00 0.00 0.00 0.00 0.00 0.00 0.00 0.00 0.00
0.00 0.00 0.00 0.00 0.00 0.00 0.00 0.00 0.00 0.00 0.00 0.00 0.00 0.00 0.00 0.00 0.00 0.00 0.00 0.00 0.00 0.00 0.00 0.00 0.00 0.00 0.00
0.00 0.00 0.00 0.00 0.00 0.00 0.00 0.00 0.00 0.00 0.00 0.00 0.00 0.00 0.00 0.00 0.00 0.00 0.00 0.00 0.00 0.00 0.00 0.00 0.00 0.00 0.00
0.00 0.00 0.00 0.00 0.00 0.00 0.00 0.00 0.00 0.00 0.00 0.00 0.00 0.00 0.00 0.00 0.00 0.00 0.00 0.00 0.00 0.00 0.00 0.00 0.00 0.00 0.00
0.00 0.00 0.00 0.00 0.00 0.00 0.00 0.00 0.00 0.00 0.00 0.00 0.00 0.00 0.00 0.00 0.00 0.00 0.00 0.00 0.00 0.00 0.00 0.00 0.00 0.00 0.00
0.00 0.00 0.00 0.00 0.00 0.00 0.00 0.00 0.00 0.00 0.00 0.00 0.00 0.00 0.00 0.00 0.00 0.00 0.00 0.00 0.00 0.00 0.00 0.00 0.00 0.00 0.00
0.00 0.00 0.00 0.00 0.00 0.00 0.00 0.00 0.00 0.00 0.00 0.00 0.00 0.00 0.00 0.00 0.00 0.00 0.00 0.00 0.00 0.00 0.00 0.00 0.00 0.00 0.00
0.00 0.00 0.00 0.00 0.00 0.00 0.00 0.00 0.00 0.00 0.00 0.00 0.00 0.00 0.00 0.00 0.00 0.00 0.00 0.00 0.00 0.00 0.00 0.00 0.00 0.00 0.00
MSLP
1022.36 1022.53 1023.31 1023.67 1023.86 1024.23 1024.43 1024.65 1024.75 1024.87 1025.00 1025.16 1025.33 1025.44 1025.53 1025.58 1025.58 1025.58 1025.55 1025.39 1025.15 1025.08 1025.04 1024.93 1024.50 1024.17 1023.82
1022.04 1022.34 1022.60 1022.79 1023.09 1023.53 1023.78 1023.87 1024.10 1024.21 1024.65 1024.86 1024.98 1025.10 1025.28 1025.29 1025.25 1025.33 1025.45 1025.44 1025.04 1024.85 1024.91 1024.77 1024.47 1024.23 1023.93
1021.65 1021.61 1022.15 1022.43 1022.80 1022.89 1022.98 1023.16 1023.45 1023.70 1023.97 1024.20 1024.40 1024.66 1024.75 1024.85 1024.82 1024.76 1024.92 1025.09 1024.91 1024.66 1024.57 1024.57 1024.43 1024.24 1023.97
1021.10 1021.30 1021.75 1021.98 1022.38 1022.52 1022.82 1023.06 1023.17 1023.13 1023.35 1023.49 1023.95 1024.09 1024.28 1024.47 1024.56 1024.35 1024.52 1024.70 1024.61 1024.44 1024.33 1024.40 1024.38 1024.25 1024.07
1020.40 1020.60 1020.78 1021.19 1020.97 1021.12 1021.64 1021.81 1022.34 1022.77 1023.19 1023.55 1023.47 1023.61 1023.65 1023.88 1023.97 1023.97 1024.13 1024.16 1024.30 1024.28 1024.16 1024.06 1024.22 1024.18 1024.13
1018.88 1018.95 1018.85 1019.22 1019.75 1020.22 1020.93 1021.76 1022.37 1022.34 1022.49 1022.51 1022.76 1022.89 1022.91 1023.05 1023.03 1023.20 1023.42 1023.57 1023.83 1024.10 1024.02 1023.94 1023.96 1024.05 1023.95
1017.58 1017.47 1017.65 1017.94 1018.91 1019.52 1019.95 1020.82 1020.73 1021.09 1021.73 1022.06 1021.84 1022.05 1022.31 1022.21 1022.48 1023.05 1023.20 1023.28 1023.45 1023.78 1023.67 1023.80 1023.88 1023.77 1023.90
1016.28 1016.05 1016.55 1017.27 1017.80 1018.18 1018.95 1019.75 1020.72 1020.89 1020.98 1021.20 1021.28 1021.40 1021.64 1021.60 1021.78 1022.31 1022.70 1023.03 1023.26 1023.46 1023.42 1023.52 1023.63 1023.66 1023.66
1015.67 1015.57 1015.71 1016.37 1016.96 1018.11 1018.89 1019.61 1019.65 1020.49 1021.25 1021.12 1020.97 1021.16 1021.80 1021.78 1021.58 1021.79 1022.10 1022.74 1023.08 1023.14 1023.09 1023.21 1023.30 1023.25 1023.20
1015.15 1015.33 1015.60 1015.91 1016.72 1016.76 1017.53 1018.20 1018.87 1019.71 1019.58 1020.21 1020.36 1021.26 1021.63 1021.12 1021.13 1021.63 1022.19 1022.43 1022.66 1022.80 1022.73 1022.87 1022.97 1023.04 1022.97
1014.71 1014.92 1015.24 1015.55 1015.91 1016.30 1016.32 1016.87 1017.67 1017.80 1018.73 1019.42 1019.73 1020.33 1020.92 1020.93 1021.34 1021.64 1022.09 1022.34 1022.43 1022.46 1022.44 1022.56 1022.78 1022.76 1023.09
1014.52 1014.69 1014.94 1015.15 1015.37 1015.75 1016.22 1016.49 1016.76 1017.29 1017.71 1018.66 1018.93 1019.47 1020.13 1020.66 1021.05 1021.47 1021.75 1021.96 1022.10 1022.29 1022.36 1022.40 1022.42 1022.41 1022.41
1013.97 1013.95 1014.17 1014.58 1015.05 1015.83 1016.35 1016.69 1017.15 1017.18 1017.55 1018.16 1018.29 1018.97 1019.42 1019.91 1020.57 1021.02 1021.42 1021.56 1021.74 1021.95 1022.06 1022.38 1022.36 1022.38 1022.44
1013.44 1013.60 1013.95 1014.50 1015.01 1015.37 1015.88 1016.35 1017.04 1017.50 1017.74 1018.08 1018.45 1018.84 1019.40 1019.88 1020.32 1020.75 1020.95 1021.26 1021.47 1021.84 1022.05 1022.06 1022.14 1022.16 1022.37
1013.15 1013.44 1013.83 1014.08 1014.56 1015.20 1015.52 1015.98 1016.24 1016.83 1017.45 1018.00 1018.45 1018.82 1019.20 1019.63 1020.13 1020.43 1020.68 1020.98 1021.32 1021.67 1022.05 1022.13 1021.89 1021.76 1021.96
1012.77 1013.05 1013.30 1013.59 1014.12 1014.71 1015.16 1015.37 1015.67 1016.15 1016.76 1017.39 1018.08 1018.70 1019.17 1019.56 1019.62 1019.98 1020.48 1020.81 1021.02 1021.41 1021.73 1022.02 1021.69 1021.64 1021.70
1012.42 1012.66 1012.79 1013.02 1013.43 1013.95 1014.50 1014.88 1015.26 1015.64 1016.07 1016.70 1017.38 1017.94 1018.48 1018.94 1019.40 1019.46 1020.05 1020.51 1020.81 1021.14 1021.37 1021.58 1021.71 1021.65 1021.58
Thickness
5594 5591 5581 5576 5571 5565 5559 5555 5550 5545 5539 5532 5525 5519 5512 5506 5499 5492 5486 5482 5477 5470 5461 5453 5448 5441 5435
5589 5583 5578 5574 5568 5563 5555 5550 5545 5540 5532 5525 5518 5512 5504 5498 5492 5484 5477 5471 5468 5462 5452 5446 5439 5432 5425
5581 5579 5572 5567 5561 5556 5551 5546 5540 5533 5527 5520 5513 5506 5498 5491 5485 5478 5472 5464 5459 5454 5446 5438 5430 5423 5416
5573 5570 5564 5561 5553 5548 5542 5536 5532 5527 5521 5514 5506 5499 5492 5483 5476 5471 5465 5457 5452 5446 5438 5430 5421 5413 5406
5566 5562 5561 5553 5551 5547 5541 5536 5528 5520 5511 5503 5499 5493 5487 5477 5471 5464 5458 5451 5444 5437 5429 5422 5412 5404 5397
5564 5563 5565 5557 5550 5543 5534 5522 5514 5513 5505 5499 5492 5487 5481 5474 5467 5460 5453 5445 5437 5427 5420 5412 5403 5395 5388
5559 5562 5558 5553 5541 5532 5527 5514 5514 5506 5496 5491 5487 5481 5473 5468 5460 5450 5443 5437 5428 5419 5411 5402 5394 5388 5379
5553 5555 5549 5541 5534 5527 5519 5510 5498 5494 5488 5483 5480 5474 5466 5462 5455 5445 5435 5427 5418 5410 5401 5392 5384 5378 5372
5544 5541 5538 5531 5524 5512 5503 5494 5495 5485 5474 5470 5469 5463 5452 5447 5443 5436 5427 5417 5408 5400 5393 5384 5377 5372 5365
5533 5530 5525 5520 5510 5507 5497 5489 5484 5474 5473 5464 5458 5445 5439 5440 5435 5425 5415 5407 5398 5390 5384 5377 5370 5363 5358
5520 5516 5511 5506 5500 5493 5489 5484 5475 5473 5462 5453 5450 5439 5431 5426 5420 5413 5403 5394 5388 5381 5374 5367 5360 5354 5348
5502 5500 5496 5492 5488 5483 5476 5471 5468 5462 5454 5444 5440 5431 5422 5415 5409 5399 5393 5386 5379 5372 5365 5359 5353 5347 5342
5488 5488 5484 5479 5474 5466 5459 5454 5448 5446 5440 5432 5428 5418 5412 5407 5397 5389 5381 5377 5371 5364 5357 5349 5344 5339 5332
5475 5471 5467 5461 5456 5451 5444 5438 5430 5424 5421 5414 5409 5402 5396 5389 5384 5377 5373 5365 5360 5353 5346 5340 5334 5329 5323
5455 5451 5447 5443 5438 5431 5427 5421 5418 5412 5405 5397 5391 5387 5382 5377 5371 5366 5361 5354 5348 5340 5333 5327 5323 5319 5315
5435 5432 5429 5425 5420 5414 5410 5407 5404 5399 5392 5386 5379 5374 5368 5364 5360 5354 5346 5340 5336 5329 5322 5314 5313 5309 5305
5415 5413 5411 5409 5406 5401 5396 5392 5389 5386 5381 5374 5368 5363 5357 5353 5345 5341 5334 5327 5322 5316 5311 5305 5301 5297 5294